P/2023 B1 ( PanSTARRS )

Japanese version
Home page
Updated on January 31, 2024

---------------------------------------------------------------------

* Profile

Discovery Date January 21, 2023
Magnitude 17.7 mag
Discoverer Pan-STARRS 2 telescope (Haleakala)

* Pictures

* Orbital Elements

Epoch 2023 Sept. 13.0 TT = JDT 2460200.5
T 2023 Apr. 28.19540 TT                                 Rudenko
q   6.1407921            (2000.0)            P               Q
n   0.05261944     Peri.   81.33046     -0.90788556     -0.33881434
a   7.0529676      Node    78.57455     +0.21039090     -0.87761474
e   0.1293322      Incl.   14.58814     +0.36260100     -0.33911239
P  18.7
>From 507 observations 2023 Jan. 13-May 23, mean residual 0".5.

* Magnitudes Graph

        m1 =    8.0 + 5 log d +  10.0 log r           [    ,-110]  (             - 2023 Jan.  8)
        m1 = -540   + 5 log d + 700   log r(t + 300)  [-110, 112]  (2023 Jan.  8 - 2023 Aug. 18)
        m1 =    8.0 + 5 log d +  10.0 log r           [ 112,    ]  (2023 Aug. 18 -             )

---------------------------------------------------------------------

The orbital elements are published on M.P.E.C. 2024-B140.
The magnitudes graphs are made with Comet for Windows.

---------------------------------------------------------------------

Copyright(C) Seiichi Yoshida (comet@aerith.net). All rights reserved.